This demonstration page uses our WeatherBlox Daily Observations layout. Learn more.

Left ArrowRight Arrow

34.16533, -84.80231

Hourly Observations for April 1, 2016

Temp ( °F °C ) Dew Point ( °F °C ) Humidity (%) Winds ( mph kmh ) Pressure ( in mb ) Visibility ( mi km ) Precip ( " mm )
12:11 am 00:11 Mostly Cloudy with Light Rain 67 19.4 64 17.8 91 91 S 7 11 29.83 1010 10 16 0.00 0.03
12:53 am 00:53 Cloudy with Light Rain 67 19.4 64 17.8 91 91 S 7 11 29.78 1009 10 16 0.02 0.51
1:53 am 01:53 Cloudy with Light Rain 65 18.3 62 16.7 90 90 SSE 12 19 29.75 1008 8 13 0.04 1.02
2:53 am 02:53 Mostly Cloudy with Light Rain 64 17.8 62 16.7 93 93 SSE 7 11 29.72 1007 10 16 0.01 0.25
3:53 am 03:53 Cloudy with Rain 63 17.2 62 16.7 97 97 Calm 29.74 1007 6 10 0.11 2.79
4:53 am 04:53 Cloudy with Rain 63 17.2 62 16.7 97 97 S 3 6 29.75 1007 5 8 0.13 3.30
5:53 am 05:53 Cloudy 64 17.8 62 16.7 93 93 VRB 6 9 29.74 1007 10 16 0.09 2.29
6:53 am 06:53 Cloudy 64 17.8 63 17.2 96 96 Calm 29.76 1008 10 16 0.00 0.00
7:18 am 07:18 Mostly Cloudy with Mist and Fog 62 16.7 61 16.1 96 96 Calm 29.80 1009 3 4 0.00 0.00
7:23 am 07:23 Mostly Cloudy 62 16.7 62 16.7 100 100 Calm 29.80 1009 9 14 0.00 0.00
7:53 am 07:53 Cloudy 62 16.7 62 16.7 100 100 Calm 29.76 1008 10 16 0.00 0.00
8:53 am 08:53 Cloudy 64 17.8 63 17.2 96 96 S 3 6 29.78 1008 10 16 0.00 0.00
9:53 am 09:53 Cloudy 65 18.3 63 17.2 93 93 Calm 29.81 1009 10 16 0.00 0.00
10:29 am 10:29 Cloudy 67 19.4 64 17.8 91 91 S 5 7 29.83 1010 10 16 0.00 0.00
10:51 am 10:51 Cloudy 66 19 64 18 94 94 Calm 29.83 1010 10 16 0.00 0.00
10:53 am 10:53 Cloudy 67 19.4 64 17.8 91 91 Calm 29.80 1009 10 16 0.00 0.00
11:42 am 11:42 Mostly Cloudy 71 21.7 64 17.8 79 79 Calm 29.83 1010 10 16 0.00 0.00
11:53 am 11:53 Mostly Cloudy 71 21.7 64 17.8 79 79 VRB 5 7 29.82 1010 10 16 0.00 0.00
12:18 pm 12:18 Mostly Cloudy 72 22.2 64 17.8 76 76 VRB 3 6 29.85 1011 10 16 0.00 0.00
12:53 pm 12:53 Partly Cloudy 72 22.2 63 17.2 73 73 Calm 29.81 1010 10 16 0.00 0.00
1:53 pm 13:53 Mostly Sunny 72 22.2 63 17.2 73 73 Calm 29.81 1010 10 16 0.00 0.00
2:53 pm 14:53 Mostly Sunny 71 21.7 62 16.7 73 73 Calm 29.81 1010 10 16 0.00 0.00
3:53 pm 15:53 Sunny 71 21.7 61 16.1 71 71 Calm 29.81 1010 10 16 0.00 0.00
4:53 pm 16:53 Sunny 71 21.7 61 16.1 71 71 Calm 29.77 1008 10 16 0.00 0.00
5:53 pm 17:53 Mostly Cloudy 68 20 61 16.1 78 78 Calm 29.78 1009 10 16 0.00 0.00
6:53 pm 18:53 Partly Cloudy 67 19.4 57 13.9 71 71 Calm 29.76 1008 10 16 0.00 0.00
7:03 pm 19:03 Mostly Cloudy 66 18.9 57 13.9 73 73 Calm 29.80 1009 10 16 0.00 0.00
7:35 pm 19:35 Cloudy 65 18.3 57 13.9 76 76 Calm 29.80 1009 10 16 0.00 0.00
7:53 pm 19:53 Cloudy 65 18.3 57 13.9 76 76 Calm 29.78 1009 10 16 0.00 0.00
8:53 pm 20:53 Cloudy 63 17.2 56 13.3 78 78 Calm 29.82 1010 10 16 0.00 0.00
9:53 pm 21:53 Cloudy 61 16.1 57 13.9 87 87 Calm 29.83 1010 10 16 0.00 0.00
10:53 pm 22:53 Cloudy 61 16.1 56 13.3 84 84 Calm 29.83 1010 10 16 0.00 0.00
11:53 pm 23:53 Cloudy with Light Rain 58 14.4 56 13.3 93 93 Calm 29.84 1011 9 14 0.02 0.51

Powered by AerisWeather